Location: New Greens
(51.7702°N, 0.3379°W)
Time: 16:00:50
(UTC+00:00)

Envisat - Pass Details

Date: 28 January 2019
Orbit: 764 x 766 km, 98.1° (Epoch: 21 October)

Event Time Altitude Azimuth Distance (km) Brightness Sun altitude
Rises 18:05:06 0° 151° (SSE) 3,224 6.1 -12.8°
Reaches altitude 10° 18:07:25 10° 147° (SSE) 2,302 5.3 -13.1°
Maximum altitude 18:12:23 58° 70° (ENE) 892 3.0 -13.9°
Drops below altitude 10° 18:17:23 10° 352° (N) 2,317 5.5 -14.6°
Sets 18:19:44 0° 349° (NNW) 3,247 6.3 -15.0°
